| time (UTC) | temp F | wind direction | speed knots | gust knots | rain 1hr in | rain 24hr in | rain mn in | humidity % | barometer mb |
| 20260508033513 | 36 | 53 | 0.0 | 0.0 | 0.00 | 0.00 | 0.00 | 94 | 1021.1 |
| 20260508031514 | 36 | 53 | 0.0 | 0.0 | 0.00 | 0.00 | 0.00 | 93 | 1021.0 |
| 20260508030513 | 37 | 53 | 0.0 | 0.0 | 0.00 | 0.00 | 0.00 | 94 | 1021.0 |
| 20260508024513 | 37 | 53 | 0.0 | 0.0 | 0.00 | 0.00 | 0.00 | 94 | 1020.8 |
| 20260508023514 | 38 | 53 | 0.0 | 0.0 | 0.00 | 0.00 | 0.00 | 94 | 1020.8 |
| 20260508021514 | 36 | 53 | 0.0 | 0.0 | 0.00 | 0.00 | 0.00 | 94 | 1020.7 |
| 20260508020514 | 35 | 53 | 0.0 | 0.0 | 0.00 | 0.00 | 0.00 | 93 | 1020.7 |
| 20260508015513 | 36 | 53 | 0.0 | 0.0 | 0.00 | 0.00 | 0.00 | 93 | 1020.7 |
| 20260508014514 | 37 | 53 | 0.0 | 0.0 | 0.00 | 0.00 | 0.00 | 93 | 1020.6 |
| 20260508011513 | 36 | 53 | 0.0 | 0.0 | 0.00 | 0.00 | 0.00 | 92 | 1020.4 |
| 20260508010513 | 36 | 53 | 0.0 | 0.0 | 0.00 | 0.00 | 0.00 | 92 | 1020.5 |
| 20260508005513 | 36 | 53 | 0.0 | 0.0 | 0.00 | 0.00 | 0.00 | 92 | 1020.4 |
| 20260508004514 | 36 | 53 | 0.0 | 0.0 | 0.00 | 0.00 | 0.00 | 92 | 1020.3 |
| 20260508003513 | 37 | 53 | 0.0 | 0.0 | 0.00 | 0.00 | 0.00 | 92 | 1020.3 |
| 20260507234513 | 38 | 53 | 0.0 | 0.0 | 0.00 | 0.00 | 0.00 | 91 | 1020.2 |
| 20260507233514 | 38 | 53 | 0.0 | 0.0 | 0.00 | 0.00 | 0.00 | 91 | 1020.1 |
| 20260507231514 | 39 | 53 | 0.0 | 0.0 | 0.00 | 0.00 | 0.00 | 90 | 1020.1 |
| 20260507225513 | 39 | 53 | 0.0 | 0.0 | 0.00 | 0.00 | 0.00 | 89 | 1020.0 |
| 20260507223514 | 39 | 53 | 0.0 | 0.0 | 0.00 | 0.00 | 0.00 | 88 | 1019.8 |
| 20260507222514 | 40 | 53 | 0.0 | 0.0 | 0.00 | 0.00 | 0.00 | 88 | 1019.8 |
| 20260507221510 | 40 | 53 | 0.0 | 0.0 | 0.00 | 0.00 | 0.00 | 88 | 1019.8 |
| 20260507220514 | 40 | 53 | 0.0 | 0.0 | 0.00 | 0.00 | 0.00 | 87 | 1019.7 |
| 20260507215514 | 41 | 53 | 0.0 | 0.0 | 0.00 | 0.00 | 0.00 | 87 | 1019.7 |
| 20260507213513 | 42 | 53 | 0.0 | 0.9 | 0.00 | 0.00 | 0.00 | 86 | 1019.7 |
| 20260507204515 | 45 | 53 | 0.9 | 0.9 | 0.00 | 0.00 | 0.00 | 81 | 1019.3 |
| 20260507202513 | 46 | 53 | 0.9 | 4.3 | 0.00 | 0.00 | 0.00 | 80 | 1019.1 |
| 20260507191514 | 49 | 297 | 0.0 | 0.0 | 0.00 | 0.00 | 0.00 | 76 | 1018.2 |
| 20260507190514 | 50 | 294 | 0.0 | 0.0 | 0.00 | 0.00 | 0.00 | 75 | 1018.0 |
| 20260507182513 | 52 | 298 | 2.6 | 6.1 | 0.00 | 0.00 | 0.00 | 71 | 1017.7 |
| 20260507181514 | 52 | 280 | 2.6 | 6.1 | 0.00 | 0.00 | 0.00 | 70 | 1017.8 |
| 20260507180514 | 53 | 285 | 3.5 | 7.0 | 0.00 | 0.00 | 0.00 | 68 | 1017.7 |
| 20260507175514 | 54 | 329 | 4.3 | 7.0 | 0.00 | 0.00 | 0.00 | 66 | 1017.7 |
| 20260507174513 | 56 | 296 | 4.3 | 7.0 | 0.00 | 0.00 | 0.00 | 63 | 1017.6 |
| 20260507170515 | 60 | 311 | 3.5 | 7.0 | 0.00 | 0.00 | 0.00 | 50 | 1017.4 |
| 20260507165514 | 61 | 339 | 1.7 | 6.1 | 0.00 | 0.00 | 0.00 | 48 | 1017.3 |
| 20260507162514 | 61 | 337 | 3.5 | 7.0 | 0.00 | 0.00 | 0.00 | 49 | 1017.4 |
| 20260507155514 | 60 | 351 | 5.2 | 8.7 | 0.00 | 0.00 | 0.00 | 55 | 1017.4 |
| 20260507154515 | 60 | 290 | 4.3 | 7.0 | 0.00 | 0.00 | 0.00 | 58 | 1017.5 |
| 20260507153513 | 60 | 353 | 4.3 | 7.8 | 0.00 | 0.00 | 0.00 | 54 | 1017.4 |
| 20260507152513 | 61 | 309 | 5.2 | 8.7 | 0.00 | 0.00 | 0.00 | 53 | 1017.4 |
| 20260507151513 | 60 | 352 | 4.3 | 8.7 | 0.00 | 0.00 | 0.00 | 55 | 1017.2 |
| 20260507143514 | 60 | 347 | 3.5 | 8.7 | 0.00 | 0.00 | 0.00 | 59 | 1017.2 |
| 20260507134514 | 60 | 343 | 4.3 | 7.0 | 0.00 | 0.00 | 0.00 | 56 | 1017.4 |
| 20260507132514 | 60 | 346 | 4.3 | 10.4 | 0.00 | 0.00 | 0.00 | 58 | 1017.3 |
| 20260507131514 | 60 | 339 | 3.5 | 8.7 | 0.00 | 0.00 | 0.00 | 58 | 1017.3 |
| 20260507130513 | 59 | 331 | 3.5 | 10.4 | 0.00 | 0.00 | 0.00 | 57 | 1017.2 |
| 20260507125514 | 59 | 324 | 7.0 | 10.4 | 0.00 | 0.00 | 0.00 | 51 | 1017.2 |
| 20260507123515 | 59 | 335 | 4.3 | 8.7 | 0.00 | 0.00 | 0.00 | 58 | 1017.1 |
| 20260507121514 | 59 | 348 | 5.2 | 8.7 | 0.00 | 0.00 | 0.00 | 57 | 1017.0 |
| 20260507115515 | 59 | 306 | 3.5 | 10.4 | 0.00 | 0.00 | 0.00 | 63 | 1017.0 |
| 20260507113514 | 59 | 347 | 5.2 | 8.7 | 0.00 | 0.00 | 0.00 | 60 | 1017.0 |
| 20260507111514 | 59 | 339 | 3.5 | 10.4 | 0.00 | 0.00 | 0.00 | 70 | 1017.0 |
| 20260507110514 | 58 | 279 | 5.2 | 11.3 | 0.00 | 0.00 | 0.00 | 68 | 1017.0 |
| 20260507105514 | 58 | 318 | 5.2 | 8.7 | 0.00 | 0.00 | 0.00 | 68 | 1017.0 |
| 20260507104515 | 58 | 334 | 5.2 | 10.4 | 0.00 | 0.00 | 0.00 | 67 | 1016.9 |
| 20260507103513 | 58 | 311 | 4.3 | 7.8 | 0.00 | 0.00 | 0.00 | 68 | 1016.9 |
| 20260507101514 | 57 | 316 | 5.2 | 10.4 | 0.00 | 0.00 | 0.00 | 67 | 1016.8 |
| 20260507100514 | 57 | 325 | 5.2 | 8.7 | 0.00 | 0.00 | 0.00 | 63 | 1016.7 |
| 20260507095513 | 56 | 279 | 5.2 | 10.4 | 0.00 | 0.00 | 0.00 | 69 | 1016.7 |
| 20260507094513 | 56 | 293 | 2.6 | 8.7 | 0.00 | 0.00 | 0.00 | 71 | 1016.7 |
| 20260507093513 | 57 | 352 | 4.3 | 7.8 | 0.00 | 0.00 | 0.00 | 71 | 1016.6 |
| 20260507092513 | 57 | 284 | 4.3 | 10.4 | 0.00 | 0.00 | 0.00 | 71 | 1016.5 |
| 20260507085513 | 56 | 308 | 4.3 | 10.4 | 0.00 | 0.00 | 0.00 | 71 | 1016.4 |
| 20260507084513 | 56 | 321 | 4.3 | 10.4 | 0.00 | 0.00 | 0.00 | 71 | 1016.3 |
| 20260507083513 | 55 | 312 | 4.3 | 10.4 | 0.00 | 0.00 | 0.00 | 75 | 1016.2 |
| 20260507080513 | 54 | 299 | 7.0 | 8.7 | 0.00 | 0.00 | 0.00 | 76 | 1015.9 |
| 20260507074514 | 54 | 347 | 5.2 | 8.7 | 0.00 | 0.00 | 0.00 | 76 | 1015.8 |
| 20260507070514 | 54 | 253 | 2.6 | 7.8 | 0.00 | 0.00 | 0.00 | 77 | 1015.5 |
| 20260507065512 | 54 | 267 | 2.6 | 6.1 | 0.00 | 0.00 | 0.00 | 76 | 1015.4 |
| 20260507063513 | 54 | 250 | 0.9 | 5.2 | 0.00 | 0.00 | 0.00 | 77 | 1015.4 |
| 20260507062513 | 52 | 218 | 1.7 | 6.1 | 0.00 | 0.00 | 0.00 | 78 | 1015.3 |
| 20260507053513 | 48 | 309 | 0.0 | 1.7 | 0.00 | 0.00 | 0.00 | 87 | 1015.2 |
| 20260507045513 | 44 | 240 | 0.0 | 0.9 | 0.00 | 0.00 | 0.00 | 93 | 1014.9 |
| 20260507042513 | 40 | 235 | 0.0 | 0.0 | 0.00 | 0.00 | 0.00 | 94 | 1014.7 |
| 20260507041513 | 38 | 307 | 0.0 | 0.0 | 0.00 | 0.00 | 0.00 | 93 | 1014.6 |
| 20260507040513 | 38 | 244 | 0.0 | 0.0 | 0.00 | 0.00 | 0.00 | 93 | 1014.6 |